map of HFA home
HFA - Airport
Location
City:  Haifa, Israel
Name:Haifa International Airport
Old (Alt.):Uri Michaeli Airport
ICAO:LLHA
IATA:HFA

Details
Type:Airport (Aerodrome, Airfield)
Use:Public/Civil, Military, International (customs port of entry)
Latitude:3248'34"N (32.809444)
Longitude:3502'35"E (35.043056)
Datum:WGS 1984
Elevation:28 ft (9 m)
Variation:4.76E (WMM2015 magnetic declination)
0.08 annual change
Runways:1
Longest:4324 × 98 ft (1318 × 30 m), paved

Time
Time Zone:UTC+2 (DST+3)
Local Time:

Weather
METAR:LLHA 200950Z 26009KT 220V290 9999 FEW035 30/19 Q1012
TAF:LLHA 200514Z 2006/2106 13004KT 9999 SCT025
BECMG 2007/2010 28010KT SCT030
BECMG 2015/2017 VRB04KT
TEMPO 2022/2106 BKN025 TX29/2012Z TN23/2103Z

Related Locations
Nearby:
Farthest:RVV: 11795 mi / 18982 km
Raivavae, Tubuai Islands, Austral Islands, PF

Find:

   beyond  
but within

Other Information
Maps:
NOTAMs:
Links:
Sources:

  
flag of Israel
flag of Israeli Air Force
  

Sectional Chart

Flight Planning
at skyvector.com

Satellite Image

Google Maps Satellite view

 

Copyright © 2004-2017 Karl L. Swartz. All rights reserved.
The Great Circle Mapper name and logo are trademarks of the Great Circle Mapper.
All other trademarks mentioned herein belong to their respective owners.
Please see credits for attibutions and further copyright information.

  Follow gcmap on Facebook Follow gcmap on Twitter Follow gcmap on Google+ GCmap on LinkedIn

hCard Microformat

Geo Microformat